Content
SEND FEEDBACK

Daily
Averages
Monthly
Summary
Croatia

SEGET DONJI, CROATIA


Home > Europe > Croatia
Elevation: 69 feet     Latitude: 43 31N     Longitude: 016 18E

WEATHER
 
SELECT A DAY
Number of Records: 293,599;   Date Range: 1/10/97 - 10/24/14
 
SHARE

PRINT THIS DATA

[ ← Previous Day ]
WEATHER ALMANAC - NOVEMBER 29, 2013
[ Next Day → ]
[ °C ]   °F
Weather ElementAverageHighLow
Temperature47 °F55.4 °F (12:00 pm)39.2 °F (11:30 pm)
Dewpoint35.3 °F39.2 °F (10:00 am)32 °F (1:30 pm)
Humidity63.7 %81 % (2:30 am)34 % (1:00 pm)
Barometer30.24 in30.34 in (1:00 am)30.12 in (11:00 pm)
Wind Speed4.8 mph9.2 mph (6:00 pm)
Weather ElementAverage
Visibility12.1 mi
Wind DirectionSSW (197.5 °)

Weather ElementTotal
Precipitation---
Heating Degree Days17.7 (Base 65)
Averaged from 55 records on November 29, 2013
WEATHER CONDITIONS BREAKOUT
WIND DIRECTION BREAKOUT
WEATHER BY HOUR - NOVEMBER 29, 2013
[ °C ]   °F
Local TimeTemperatureDewpointHumidityBarometerVisibilityWind DirectionWind SpeedGust SpeedPrecipitationEventsConditions
12:30 AM42.8 °F35.6 °F76 %30.33 in6.2 miNW (310°)5.8 mphPartly Cloudy
1:00 AM43.0 °F35.0 °F65 %30.34 in12.0 miNNW (340°)4.5 mphScattered Clouds
1:00 AM42.8 °F35.6 °F76 %30.33 in6.2 miNNW (340°)4.6 mphPartly Cloudy
1:30 AM41.0 °F33.8 °F76 %30.33 inNNW (330°)5.8 mphClear
2:00 AM41.0 °F33.8 °F76 %30.33 inNNW (330°)5.8 mphClear
2:30 AM41.0 °F35.6 °F81 %30.33 in6.2 miNNW (330°)4.6 mphPartly Cloudy
3:00 AM42.8 °F37.4 °F81 %30.30 in6.2 miVariable3.5 mphPartly Cloudy
3:30 AM42.8 °F35.6 °F76 %30.30 in6.2 miNNW (340°)4.6 mphPartly Cloudy
4:00 AM43.0 °F37.0 °F71 %30.31 in12.0 miNNW (330°)4.5 mphScattered Clouds
4:00 AM42.8 °F37.4 °F81 %30.30 in6.2 miVariable3.5 mphPartly Cloudy
4:30 AM44.6 °F35.6 °F71 %30.30 in6.2 miCalmPartly Cloudy
5:00 AM44.6 °F35.6 °F71 %30.30 in6.2 miNorth (360°)5.8 mphScattered Clouds
5:30 AM44.6 °F35.6 °F71 %30.30 in6.2 miVariable2.3 mphScattered Clouds
6:00 AM44.6 °F35.6 °F71 %30.27 in6.2 miNW (320°)4.6 mphScattered Clouds
6:30 AM44.6 °F35.6 °F71 %30.27 in6.2 miNNW (340°)5.8 mphScattered Clouds
7:00 AM44.0 °F34.0 °F59 %30.30 in19.0 miNorth (10°)4.5 mphScattered Clouds
7:00 AM44.6 °F33.8 °F66 %30.30 in6.2 miVariable3.5 mphPartly Cloudy
7:30 AM42.8 °F35.6 °F76 %30.30 inNorth (350°)5.8 mphClear
8:00 AM44.6 °F33.8 °F66 %30.30 inNorth (350°)5.8 mphClear
8:30 AM44.6 °F35.6 °F71 %30.30 inVariable3.5 mphClear
9:00 AM48.2 °F37.4 °F66 %30.30 inVariable3.5 mphClear
9:30 AM50.0 °F37.4 °F62 %30.30 inVariable1.2 mphClear
10:00 AM52.0 °F39.0 °F50 %30.30 in19.0 miESE (120°)2.2 mph
10:00 AM51.8 °F39.2 °F62 %30.30 inVariable2.3 mphClear
10:30 AM51.8 °F39.2 °F62 %30.27 inVariable3.5 mphClear
11:00 AM53.6 °F39.2 °F58 %30.27 inVariable3.5 mphClear
11:30 AM53.6 °F37.4 °F54 %30.27 inVariable3.5 mphClear
12:00 PM55.4 °F35.6 °F47 %30.24 inVariable4.6 mphClear
12:30 PM55.4 °F33.8 °F44 %30.24 inNorth (350°)6.9 mphClear
1:00 PM54.0 °F34.0 °F34 %30.24 in31.0 miNW (310°)4.5 mphScattered Clouds
1:00 PM55.4 °F33.8 °F44 %30.24 inNW (310°)4.6 mphClear
1:30 PM55.4 °F32.0 °F41 %30.21 inWNW (300°)5.8 mphClear
2:00 PM55.4 °F33.8 °F44 %30.21 inVariable3.5 mphClear
2:30 PM55.4 °F33.8 °F44 %30.18 inWNW (300°)6.9 mphClear
3:00 PM55.4 °F35.6 °F47 %30.18 inNNW (340°)5.8 mphClear
3:30 PM53.6 °F37.4 °F54 %30.18 inVariable3.5 mphClear
4:00 PM52.0 °F35.0 °F40 %30.20 in31.0 miNW (320°)4.5 mphScattered Clouds
4:00 PM51.8 °F35.6 °F54 %30.18 inVariable3.5 mphClear
4:30 PM48.2 °F35.6 °F62 %30.18 inNW (310°)4.6 mphClear
5:00 PM48.2 °F35.6 °F62 %30.18 inNW (310°)6.9 mphClear
5:30 PM48.2 °F35.6 °F62 %30.18 inWNW (300°)8.1 mphClear
6:00 PM48.2 °F35.6 °F62 %30.18 inWNW (300°)9.2 mphClear
6:30 PM48.2 °F35.6 °F62 %30.18 inNW (310°)9.2 mphClear
7:00 PM47.0 °F35.0 °F52 %30.18 in31.0 miNW (320°)6.7 mphScattered Clouds
7:00 PM46.4 °F35.6 °F66 %30.15 inNW (320°)5.8 mphClear
7:30 PM44.6 °F33.8 °F66 %30.15 inNW (310°)6.9 mphClear
8:00 PM44.6 °F33.8 °F66 %30.15 inWNW (300°)8.1 mphClear
8:30 PM42.8 °F33.8 °F70 %30.15 inNNW (340°)6.9 mphClear
9:00 PM42.8 °F33.8 °F70 %30.15 inVariable2.3 mphClear
9:30 PM42.8 °F33.8 °F70 %30.15 inVariable1.2 mphClear
10:00 PM42.0 °F34.0 °F63 %30.16 in12.0 miNNW (340°)4.5 mph
10:00 PM41.0 °F33.8 °F76 %30.15 inNNW (340°)5.8 mphClear
10:30 PM41.0 °F33.8 °F76 %30.15 inVariable3.5 mphClear
11:00 PM41.0 °F33.8 °F76 %30.12 inVariable3.5 mphClear
11:30 PM39.2 °F33.8 °F81 %30.12 inNNW (330°)6.9 mphClear
Hourly data recorded from LDSP, located miles away from Seget Donji, Croatia







STORIES FROM OUR PARTNERS